This is the latest recevied weather packets stored in our database for station/object OZ0AJ-13. If no packets are shown the sender has not sent any weather packets the latest 10 day(s).
| Time | Temp. | Humidity | Pressure | Rain* | Wind** | Luminosity | Snow |
|---|---|---|---|---|---|---|---|
| 1778003433 | 13.33° C | 58% | 1011.6 hPa | 0 mm | - | - | - |
| 1778002830 | 14.44° C | 54% | 1011.7 hPa | 0 mm | - | - | - |
| 1778002226 | 14.44° C | 55% | 1011.6 hPa | 0 mm | - | - | - |
| 1778001622 | 13.89° C | 55% | 1011.7 hPa | 0 mm | - | - | - |
| 1778001018 | 13.89° C | 56% | 1011.7 hPa | 0 mm | - | - | - |
| 1778000434 | 14.44° C | 56% | 1011.7 hPa | 0 mm | - | - | - |
| 1777999830 | 14.44° C | 55% | 1011.8 hPa | 0 mm | - | - | - |
| 1777999226 | 15.56° C | 51% | 1011.6 hPa | 0 mm | - | - | - |
| 1777998622 | 15.56° C | 49% | 1011.7 hPa | 0 mm | - | - | - |
| 1777998018 | 15.56° C | 48% | 1011.7 hPa | 0 mm | - | - | - |
| 1777997435 | 15.56° C | 50% | 1011.9 hPa | 0 mm | - | - | - |
| 1777996831 | 15.56° C | 49% | 1011.8 hPa | 0 mm | - | - | - |
| 1777996227 | 15.56° C | 50% | 1011.9 hPa | 0 mm | - | - | - |
| 1777995623 | 15.56° C | 51% | 1011.8 hPa | 0 mm | - | - | - |
| 1777995019 | 15.56° C | 50% | 1011.7 hPa | 0 mm | - | - | - |
| 1777994436 | 15.56° C | 51% | 1011.8 hPa | 0 mm | - | - | - |
| 1777993831 | 15.56° C | 51% | 1011.7 hPa | 0 mm | - | - | - |
| 1777993227 | 15.56° C | 52% | 1011.7 hPa | 0 mm | - | - | - |
| 1777992623 | 15.56° C | 51% | 1011.7 hPa | 0 mm | - | - | - |
| 1777992020 | 15.56° C | 50% | 1011.7 hPa | 0 mm | - | - | - |
| 1777991415 | 16.11° C | 49% | 1011.8 hPa | 0 mm | - | - | - |
| 1777990832 | 15.56° C | 48% | 1011.8 hPa | 0 mm | - | - | - |
| 1777989624 | 15° C | 51% | 1011.7 hPa | 0 mm | - | - | - |
| 1777989020 | 15° C | 53% | 1011.8 hPa | 0 mm | - | - | - |
| 1777988416 | 14.44° C | 56% | 1011.9 hPa | 0 mm | - | - | - |
* Rain latest hour (hover to see other rain measurements)
** Current wind speed in m/s (hover to see current wind gust speed)